Regional Weather Roundup
Issued by NWS

Home | Current Version | Previous Version | Text Only | Print | Product List | Glossary Off
Versions: 1 2 3 4 5 6 7 8 9 10 11 12 13 14 15 16 17 18 19 20 21 22 23 24 25 26 27 28 29 30 31 32 33 34 35 36 37 38 39 40 41 42 43 44 45 46 47 48 49 50

000
ASUS44 KMEG 030210
RWRTN
TENNESSEE HOURLY STATE WEATHER ROUNDUP
NATIONAL WEATHER SERVICE MEMPHIS TN
900 PM CDT THU JUL 02 2015

TNZ002-004-019-021-049-052-054-088>092-030300-
WEST TENNESSEE

CITY           SKY/WX    TMP DP  RH WIND       PRES   REMARKS
MEMPHIS INTL   CLOUDY    84  69  60 SW12      29.85F
NWS MEMPHIS      N/A     84 N/A N/A MISG        N/A
JACKSON        TSTM      78  72  81 SW9       29.87R
DYERSBURG        N/A    N/A N/A N/A MISG        N/A  THUNDER
PARIS          PTCLDY    73  72  94 S3        29.86F
LEXINGTON      MOCLDY    73  72  94 S3        29.85F
$$

TNZ008-025-027-028-033-062-065-066-030300-
NORTH MIDDLE TENNESSEE

CITY           SKY/WX    TMP DP  RH WIND       PRES   REMARKS
NASHVILLE      CLOUDY    77  73  87 SW7       29.87S
CLARKSVILLE    CLOUDY    74  71  91 SW3       29.86R
SMYRNA         CLOUDY    78  72  82 SW6       29.87F
COOKEVILLE     CLOUDY    73  72  94 N22G75    29.89F SQUALL
CROSSVILLE     LGT RAIN  72  68  87 W13G18    29.96S
$$

TNZ061-075-076-078-094-096-097-030300-
SOUTH MIDDLE TENNESSEE

CITY           SKY/WX    TMP DP  RH WIND       PRES   REMARKS
FAYETTEVILLE   PTCLDY    75  68  78 SW8       29.92S
TULLAHOMA      CLOUDY    73  68  83 CALM      29.93S
WINCHESTER     CLOUDY    73  70  88 CALM      29.93S
MCMINNVILLE    CLOUDY    75  73  94 SW8       29.91S
COLUMBIA       MOCLDY    75  72  88 SW5       29.87F
SHELBYVILLE    CLOUDY   N/A N/A N/A MISG        N/A
$$

TNZ017-018-042-046-047-030300-
NORTHEAST TENNESSEE

CITY           SKY/WX    TMP DP  RH WIND       PRES   REMARKS
TRI CITIES     CLOUDY    70  65  84 CALM      29.96R
ELIZABETHTON   CLEAR     64  64 100 CALM      29.97S
$$

TNZ012-013-036-069-073-074-030300-
CENTRAL EAST TENNESSEE

CITY           SKY/WX    TMP DP  RH WIND       PRES   REMARKS
KNOXVILLE      CLOUDY    74  67  78 SW7       29.92R
OAK RIDGE      CLOUDY    75  69  81 CALM      29.93R
GATLINBURG     CLOUDY    72  68  88 CALM      29.93S
MORRISTOWN     PTCLDY    72  70  94 CALM      29.96R
$$

TNZ083-085-099-030300-
SOUTHEAST TENNESSEE

CITY           SKY/WX    TMP DP  RH WIND       PRES   REMARKS
CHATTANOOGA    MOCLDY    72  71  97 W3        29.93R
$$

SKY/WX REPORTED AS FAIR MEANS FEW OR NO CLOUDS BELOW
12 THOUSAND FEET.



USA.gov is the U.S. government's official web portal to all federal, state and local government web resources and services.